User: anonymous   Login
Location: Unspecified
(0.0000°N, 0.0000°E)
Time: 09:39:02
(UTC+02:00)
Language:

ARIANE 5 R/B - Orbit

View from above orbital plane
View from above orbital plane
View from above satellite
View from above satellite

Ground track
Ground track

The orbit data is extracted from the following two-line orbital elements,

1 28886U 05041C   15239.07906589 -.00000122  00000-0 -51405-3 0  9991
2 28886 007.9624 255.4921 7178728 324.6908 057.6502 02.24322003 80913
Epoch (UTC): 27 August 2015 01:53:51
Eccentricity: 0.7178728
inclination: 7.9624°
perigee height: 576 km
apogee height: 35967 km
right ascension of ascending node: 255.4921°
argument of perigee: 324.6908°
revolutions per day: 2.24322003
mean anomaly at epoch: 57.6502°
orbit number at epoch: 8091

The dashed part of the orbit path shows where the satellite is in the earth's shadow,  

DLR